SNG7927 ZLXN-ZUUU

Flight info

Callsign SNG7927
Flight time 1h 8m
Altitude 33100
Route P358 J130 XHE J132 OMBON W245 OVRAL B330 UBKER G212 JTG W236 CTU
Aircraft A320/M-SDE3FGHIRWY/LB1D1

Departure

Time 2026-04-16 13:16
Airport Xining Caojiabao International Airport (ZLXN)

Arrival

Time 2026-04-16 14:25
Airport Chengdu Shuangliu International Airport (ZUUU)
Time Latitude Longitude Altitude Speed Heading
2026-04-16 13:05 36.52655 102.04097 7164 ft 1 kts 199°
2026-04-16 13:05 36.52660 102.04102 7164 ft 4 kts 27°
2026-04-16 13:05 36.52675 102.04111 7168 ft 1 kts 11°
2026-04-16 13:06 36.52675 102.04110 7168 ft 1 kts 11°
2026-04-16 13:08 36.52676 102.04111 7172 ft 2 kts 11°
2026-04-16 13:09 36.52720 102.04113 7164 ft 7 kts 339°
2026-04-16 13:09 36.52737 102.04076 7167 ft 3 kts 292°
2026-04-16 13:09 36.52746 102.04048 7172 ft 8 kts 292°
2026-04-16 13:09 36.52779 102.03991 7169 ft 7 kts 342°
2026-04-16 13:10 36.52839 102.03988 7173 ft 11 kts 330°
2026-04-16 13:10 36.52869 102.03913 7174 ft 9 kts 289°
2026-04-16 13:10 36.52886 102.03854 7174 ft 6 kts 289°
2026-04-16 13:10 36.52896 102.03820 7170 ft 5 kts 289°
2026-04-16 13:11 36.52917 102.03743 7180 ft 14 kts 289°
2026-04-16 13:11 36.52958 102.03594 7178 ft 22 kts 288°
2026-04-16 13:11 36.53011 102.03401 7173 ft 23 kts 291°
2026-04-16 13:11 36.53065 102.03217 7184 ft 22 kts 288°
2026-04-16 13:12 36.53111 102.03038 7182 ft 21 kts 289°
2026-04-16 13:12 36.53158 102.02872 7186 ft 20 kts 289°
2026-04-16 13:12 36.53204 102.02713 7183 ft 19 kts 289°
2026-04-16 13:12 36.53245 102.02559 7191 ft 18 kts 288°
2026-04-16 13:13 36.53285 102.02419 7183 ft 17 kts 291°
2026-04-16 13:13 36.53322 102.02285 7199 ft 18 kts 289°
2026-04-16 13:13 36.53367 102.02121 7204 ft 22 kts 288°
2026-04-16 13:13 36.53414 102.01950 7206 ft 17 kts 290°
2026-04-16 13:14 36.53474 102.01907 7207 ft 10 kts 20°
2026-04-16 13:14 36.53534 102.01937 7206 ft 8 kts 21°
2026-04-16 13:14 36.53574 102.01966 7205 ft 6 kts 52°
2026-04-16 13:14 36.53571 102.02008 7206 ft 5 kts 106°
2026-04-16 13:15 36.53561 102.02046 7205 ft 7 kts 108°
2026-04-16 13:15 36.53507 102.02242 7205 ft 55 kts 109°
2026-04-16 13:15 36.53303 102.02974 7188 ft 121 kts 109°
2026-04-16 13:15 36.52967 102.04186 7170 ft 173 kts 109°
2026-04-16 13:16 36.52540 102.05739 7461 ft 195 kts 109°
2026-04-16 13:16 36.52111 102.07344 8194 ft 196 kts 108°
2026-04-16 13:16 36.51697 102.08988 8800 ft 205 kts 107°
2026-04-16 13:16 36.51252 102.10744 9024 ft 223 kts 109°
2026-04-16 13:17 36.50744 102.12672 9162 ft 247 kts 109°
2026-04-16 13:17 36.50188 102.14761 9685 ft 258 kts 109°
2026-04-16 13:17 36.49620 102.16894 10385 ft 262 kts 109°
2026-04-16 13:17 36.49039 102.19065 11050 ft 267 kts 109°
2026-04-16 13:18 36.48282 102.21205 11487 ft 281 kts 129°
2026-04-16 13:18 36.46706 102.22710 11723 ft 298 kts 161°
2026-04-16 13:18 36.44616 102.23264 11944 ft 318 kts 178°
2026-04-16 13:18 36.42323 102.23330 12147 ft 341 kts 183°
2026-04-16 13:19 36.39889 102.23250 12440 ft 357 kts 183°
2026-04-16 13:19 36.37372 102.23216 13023 ft 365 kts 181°
2026-04-16 13:19 36.34817 102.23304 13678 ft 370 kts 179°
2026-04-16 13:19 36.32225 102.23514 14292 ft 375 kts 178°
2026-04-16 13:20 36.29613 102.23808 14875 ft 380 kts 176°
2026-04-16 13:20 36.26970 102.24142 15456 ft 383 kts 177°
2026-04-16 13:20 36.24303 102.24135 16023 ft 384 kts 189°
2026-04-16 13:20 36.21700 102.23440 16579 ft 383 kts 202°
2026-04-16 13:21 36.19274 102.22078 17107 ft 384 kts 211°
2026-04-16 13:21 36.16894 102.20537 17673 ft 389 kts 208°
2026-04-16 13:21 36.14319 102.19417 18217 ft 397 kts 196°
2026-04-16 13:21 36.11562 102.18959 18723 ft 404 kts 184°
2026-04-16 13:22 36.08739 102.19206 19202 ft 411 kts 172°
2026-04-16 13:22 36.05951 102.20069 19673 ft 415 kts 166°
2026-04-16 13:22 36.03161 102.21024 20152 ft 418 kts 166°
2026-04-16 13:22 36.00324 102.22052 20640 ft 420 kts 165°
2026-04-16 13:23 35.97519 102.23110 21124 ft 423 kts 165°
2026-04-16 13:23 35.94699 102.24191 21611 ft 426 kts 164°
2026-04-16 13:23 35.91864 102.25276 22078 ft 428 kts 165°
2026-04-16 13:23 35.89006 102.26358 22557 ft 431 kts 165°
2026-04-16 13:24 35.86130 102.27435 23012 ft 433 kts 165°
2026-04-16 13:24 35.83238 102.28514 23470 ft 436 kts 165°
2026-04-16 13:24 35.80327 102.29598 23897 ft 438 kts 165°
2026-04-16 13:24 35.77401 102.30686 24278 ft 440 kts 165°
2026-04-16 13:25 35.74466 102.31768 24652 ft 442 kts 165°
2026-04-16 13:25 35.71512 102.32844 25013 ft 444 kts 165°
2026-04-16 13:25 35.68539 102.33923 25396 ft 446 kts 165°
2026-04-16 13:25 35.65559 102.35004 25738 ft 448 kts 165°
2026-04-16 13:26 35.62560 102.36091 26093 ft 450 kts 165°
2026-04-16 13:26 35.59550 102.37184 26437 ft 452 kts 166°
2026-04-16 13:26 35.56528 102.38283 26782 ft 454 kts 166°
2026-04-16 13:26 35.53494 102.39388 27136 ft 456 kts 166°
2026-04-16 13:27 35.50440 102.40498 27474 ft 458 kts 166°
2026-04-16 13:27 35.47378 102.41609 27812 ft 460 kts 166°
2026-04-16 13:27 35.44298 102.42727 28131 ft 461 kts 166°
2026-04-16 13:27 35.41206 102.43848 28460 ft 463 kts 166°
2026-04-16 13:28 35.38111 102.44969 28772 ft 465 kts 166°
2026-04-16 13:28 35.35002 102.46093 29070 ft 467 kts 166°
2026-04-16 13:28 35.31876 102.47221 29364 ft 469 kts 166°
2026-04-16 13:28 35.28778 102.48342 29651 ft 470 kts 166°
2026-04-16 13:29 35.25633 102.49480 29942 ft 472 kts 166°
2026-04-16 13:29 35.22479 102.50619 30235 ft 473 kts 166°
2026-04-16 13:29 35.19318 102.51757 30591 ft 472 kts 166°
2026-04-16 13:29 35.16172 102.52887 30945 ft 471 kts 166°
2026-04-16 13:30 35.13029 102.54015 31295 ft 470 kts 166°
2026-04-16 13:30 35.09859 102.55156 31654 ft 468 kts 166°
2026-04-16 13:30 35.06740 102.56281 32013 ft 467 kts 166°
2026-04-16 13:30 35.03622 102.57403 32374 ft 466 kts 167°
2026-04-16 13:31 35.00521 102.58515 32708 ft 465 kts 167°
2026-04-16 13:31 34.97424 102.59621 33050 ft 464 kts 167°
2026-04-16 13:31 34.94326 102.60727 33285 ft 463 kts 167°
2026-04-16 13:32 34.88174 102.62924 33324 ft 460 kts 167°
2026-04-16 13:32 34.82159 102.65595 33323 ft 464 kts 155°
2026-04-16 13:33 34.76958 102.70293 33314 ft 470 kts 139°
2026-04-16 13:33 34.72188 102.75743 33319 ft 471 kts 139°
2026-04-16 13:34 34.67394 102.81164 33314 ft 470 kts 140°
2026-04-16 13:34 34.62603 102.86570 33307 ft 470 kts 140°
2026-04-16 13:35 34.57815 102.91980 33312 ft 470 kts 140°
2026-04-16 13:35 34.53030 102.97389 33311 ft 470 kts 139°
2026-04-16 13:36 34.48243 103.02792 33316 ft 470 kts 140°
2026-04-16 13:36 34.43456 103.08171 33315 ft 470 kts 140°
2026-04-16 13:37 34.38665 103.13546 33319 ft 470 kts 140°
2026-04-16 13:37 34.33872 103.18919 33324 ft 469 kts 140°
2026-04-16 13:38 34.29049 103.24322 33327 ft 470 kts 140°
2026-04-16 13:38 34.24246 103.29685 33320 ft 470 kts 140°
2026-04-16 13:39 34.19441 103.35050 33323 ft 471 kts 140°
2026-04-16 13:39 34.15440 103.39509 33328 ft 471 kts 140°
2026-04-16 13:40 34.09802 103.45782 33324 ft 472 kts 140°
2026-04-16 13:40 34.05789 103.50238 33327 ft 472 kts 140°
2026-04-16 13:41 34.00949 103.55593 33319 ft 473 kts 140°
2026-04-16 13:41 33.96102 103.60954 33322 ft 473 kts 140°
2026-04-16 13:42 33.91254 103.66311 33325 ft 473 kts 140°
2026-04-16 13:42 33.86404 103.71660 33321 ft 472 kts 141°
2026-04-16 13:43 33.81550 103.77019 33320 ft 472 kts 141°
2026-04-16 13:43 33.76703 103.82356 33322 ft 472 kts 141°
2026-04-16 13:44 33.71851 103.87679 33325 ft 472 kts 141°
2026-04-16 13:44 33.66995 103.92998 33326 ft 472 kts 142°
2026-04-16 13:45 33.62135 103.98313 33327 ft 472 kts 142°
2026-04-16 13:45 33.57282 104.03625 33324 ft 472 kts 142°
2026-04-16 13:46 33.52429 104.08926 33322 ft 472 kts 143°
2026-04-16 13:46 33.47572 104.14218 33319 ft 472 kts 143°
2026-04-16 13:47 33.42709 104.19503 33319 ft 472 kts 144°
2026-04-16 13:47 33.37834 104.24765 33317 ft 470 kts 147°
2026-04-16 13:48 33.32422 104.28866 33312 ft 454 kts 163°
2026-04-16 13:48 33.26669 104.31947 33328 ft 453 kts 163°
2026-04-16 13:49 33.20931 104.35016 33320 ft 452 kts 163°
2026-04-16 13:49 33.15195 104.38076 33320 ft 452 kts 164°
2026-04-16 13:50 33.09468 104.41138 33326 ft 450 kts 164°
2026-04-16 13:50 33.03752 104.44190 33324 ft 450 kts 164°
2026-04-16 13:51 32.98007 104.47253 33321 ft 449 kts 164°
2026-04-16 13:51 32.92307 104.50288 33316 ft 449 kts 164°
2026-04-16 13:52 32.86610 104.53321 33308 ft 448 kts 164°
2026-04-16 13:52 32.80924 104.56336 33305 ft 447 kts 165°
2026-04-16 13:53 32.75129 104.58632 33291 ft 430 kts 179°
2026-04-16 13:53 32.69249 104.59110 33272 ft 422 kts 186°
2026-04-16 13:54 32.63371 104.59370 33278 ft 423 kts 186°
2026-04-16 13:54 32.57482 104.59641 33274 ft 424 kts 186°
2026-04-16 13:55 32.51594 104.59907 33263 ft 424 kts 186°
2026-04-16 13:55 32.45695 104.60173 33258 ft 424 kts 186°
2026-04-16 13:56 32.39798 104.60451 33253 ft 424 kts 186°
2026-04-16 13:56 32.33884 104.60764 33247 ft 425 kts 185°
2026-04-16 13:57 32.27961 104.61106 33250 ft 426 kts 185°
2026-04-16 13:57 32.22043 104.61445 33239 ft 426 kts 185°
2026-04-16 13:58 32.13166 104.61925 33227 ft 427 kts 185°
2026-04-16 13:58 32.07222 104.62238 33218 ft 428 kts 185°
2026-04-16 13:59 32.01265 104.62562 33213 ft 429 kts 185°
2026-04-16 13:59 31.95294 104.62891 33201 ft 430 kts 185°
2026-04-16 14:00 31.89308 104.63218 33188 ft 431 kts 185°
2026-04-16 14:00 31.83309 104.63546 33186 ft 431 kts 185°
2026-04-16 14:01 31.77304 104.63872 33180 ft 432 kts 185°
2026-04-16 14:01 31.71294 104.64137 33182 ft 432 kts 186°
2026-04-16 14:02 31.65283 104.64354 33177 ft 432 kts 186°
2026-04-16 14:02 31.59264 104.64576 33169 ft 433 kts 186°
2026-04-16 14:03 31.53236 104.64811 33169 ft 433 kts 186°
2026-04-16 14:03 31.47207 104.65046 33162 ft 434 kts 186°
2026-04-16 14:04 31.41171 104.65286 33163 ft 434 kts 186°
2026-04-16 14:04 31.35133 104.65525 33161 ft 434 kts 186°
2026-04-16 14:05 31.29163 104.65752 32691 ft 436 kts 186°
2026-04-16 14:05 31.26134 104.65871 32174 ft 436 kts 185°
2026-04-16 14:05 31.23091 104.65992 31543 ft 438 kts 184°
2026-04-16 14:06 31.20035 104.66114 30931 ft 441 kts 184°
2026-04-16 14:06 31.16958 104.66237 30331 ft 443 kts 183°
2026-04-16 14:06 31.13885 104.66361 29670 ft 441 kts 182°
2026-04-16 14:06 31.10825 104.66486 28983 ft 439 kts 182°
2026-04-16 14:07 31.07786 104.66584 28314 ft 434 kts 185°
2026-04-16 14:07 31.04812 104.66255 27664 ft 426 kts 194°
2026-04-16 14:07 31.01976 104.65392 27028 ft 419 kts 203°
2026-04-16 14:07 30.99277 104.64158 26406 ft 415 kts 205°
2026-04-16 14:08 30.96607 104.62922 25796 ft 412 kts 205°
2026-04-16 14:08 30.93946 104.61700 25200 ft 409 kts 205°
2026-04-16 14:08 30.91303 104.60489 24615 ft 407 kts 205°
2026-04-16 14:08 30.88676 104.59288 24041 ft 405 kts 204°
2026-04-16 14:09 30.86063 104.58093 23447 ft 403 kts 204°
2026-04-16 14:09 30.83464 104.56903 22777 ft 401 kts 204°
2026-04-16 14:09 30.80876 104.55714 22127 ft 399 kts 204°
2026-04-16 14:09 30.78366 104.54372 21488 ft 395 kts 212°
2026-04-16 14:10 30.76120 104.52566 20868 ft 391 kts 222°
2026-04-16 14:10 30.74202 104.50351 20261 ft 388 kts 230°
2026-04-16 14:10 30.72428 104.47989 19665 ft 387 kts 230°
2026-04-16 14:10 30.70655 104.45640 19078 ft 386 kts 230°
2026-04-16 14:11 30.68881 104.43302 18506 ft 385 kts 230°
2026-04-16 14:11 30.67107 104.40971 17866 ft 385 kts 230°
2026-04-16 14:11 30.65331 104.38639 17218 ft 385 kts 230°
2026-04-16 14:11 30.63554 104.36304 16580 ft 385 kts 230°
2026-04-16 14:12 30.61782 104.33971 15948 ft 385 kts 230°
2026-04-16 14:12 30.60011 104.31636 15343 ft 385 kts 230°
2026-04-16 14:12 30.58242 104.29302 14765 ft 385 kts 230°
2026-04-16 14:12 30.56472 104.26970 14183 ft 385 kts 230°
2026-04-16 14:13 30.54703 104.24644 13559 ft 384 kts 230°
2026-04-16 14:13 30.53508 104.23074 13128 ft 384 kts 230°
2026-04-16 14:13 30.51739 104.20766 12487 ft 382 kts 228°
2026-04-16 14:13 30.49740 104.18745 11861 ft 382 kts 218°
2026-04-16 14:14 30.47647 104.16929 11250 ft 367 kts 218°
2026-04-16 14:14 30.45670 104.15217 11008 ft 342 kts 218°
2026-04-16 14:14 30.43840 104.13632 10926 ft 315 kts 218°
2026-04-16 14:14 30.42132 104.12152 10942 ft 303 kts 218°
2026-04-16 14:15 30.40449 104.10692 10867 ft 301 kts 218°
2026-04-16 14:15 30.38782 104.09247 10567 ft 299 kts 218°
2026-04-16 14:15 30.37121 104.07804 10211 ft 298 kts 217°
2026-04-16 14:15 30.35467 104.06366 9839 ft 297 kts 217°
2026-04-16 14:16 30.33812 104.04942 9450 ft 296 kts 216°
2026-04-16 14:16 30.32152 104.03534 9062 ft 295 kts 216°
2026-04-16 14:16 30.30494 104.02138 8681 ft 294 kts 216°
2026-04-16 14:16 30.28845 104.00753 8304 ft 293 kts 216°
2026-04-16 14:17 30.27199 103.99372 7930 ft 291 kts 216°
2026-04-16 14:17 30.25764 103.97760 7564 ft 288 kts 237°
2026-04-16 14:17 30.25014 103.95651 7203 ft 282 kts 263°
2026-04-16 14:17 30.25070 103.93424 6847 ft 276 kts 287°
2026-04-16 14:18 30.25857 103.91447 6490 ft 268 kts 310°
2026-04-16 14:18 30.27195 103.90006 6110 ft 261 kts 329°
2026-04-16 14:18 30.28722 103.88842 5806 ft 256 kts 329°
2026-04-16 14:18 30.30188 103.87719 5556 ft 250 kts 329°
2026-04-16 14:19 30.31623 103.86617 5316 ft 244 kts 329°
2026-04-16 14:19 30.33021 103.85542 5069 ft 239 kts 329°
2026-04-16 14:19 30.34479 103.84750 4919 ft 228 kts 350°
2026-04-16 14:19 30.36036 103.84686 4893 ft 224 kts 12°
2026-04-16 14:20 30.37509 103.85226 4894 ft 220 kts 22°
2026-04-16 14:20 30.38922 103.85895 4898 ft 220 kts 23°
2026-04-16 14:20 30.40328 103.86556 4895 ft 213 kts 23°
2026-04-16 14:20 30.41689 103.87189 4681 ft 210 kts 22°
2026-04-16 14:21 30.43042 103.87817 4407 ft 207 kts 22°
2026-04-16 14:21 30.44343 103.88420 4149 ft 196 kts 22°
2026-04-16 14:21 30.45577 103.88993 3899 ft 186 kts 22°
2026-04-16 14:21 30.46733 103.89529 3677 ft 172 kts 23°
2026-04-16 14:22 30.47811 103.90030 3455 ft 161 kts 21°
2026-04-16 14:22 30.48816 103.90497 3260 ft 149 kts 21°
2026-04-16 14:22 30.49753 103.90932 3070 ft 142 kts 21°
2026-04-16 14:22 30.50656 103.91352 2876 ft 139 kts 20°
2026-04-16 14:23 30.51551 103.91768 2695 ft 138 kts 21°
2026-04-16 14:23 30.52440 103.92181 2504 ft 137 kts 20°
2026-04-16 14:23 30.53327 103.92589 2318 ft 137 kts 20°
2026-04-16 14:23 30.54207 103.92998 2150 ft 137 kts 21°
2026-04-16 14:24 30.55087 103.93407 1939 ft 137 kts 21°
2026-04-16 14:24 30.55978 103.93825 1767 ft 138 kts 22°
2026-04-16 14:24 30.56867 103.94237 1649 ft 132 kts 21°
2026-04-16 14:24 30.57580 103.94577 1646 ft 85 kts 21°
2026-04-16 14:25 30.57970 103.94759 1646 ft 36 kts 22°
2026-04-16 14:25 30.58116 103.94857 1646 ft 15 kts 39°
2026-04-16 14:25 30.58175 103.94926 1646 ft 12 kts 50°
2026-04-16 14:25 30.58228 103.94999 1646 ft 12 kts 50°
2026-04-16 14:26 30.58227 103.95077 1646 ft 11 kts 156°
2026-04-16 14:26 30.58160 103.95062 1646 ft 9 kts 201°
2026-04-16 14:26 30.58106 103.95036 1646 ft 8 kts 202°
2026-04-16 14:26 30.58058 103.95013 1646 ft 10 kts 202°
2026-04-16 14:27 30.57956 103.94965 1646 ft 15 kts 201°
2026-04-16 14:27 30.57900 103.94940 1646 ft 9 kts 202°
2026-04-16 14:27 30.57845 103.94913 1646 ft 8 kts 202°
2026-04-16 14:27 30.57784 103.94884 1646 ft 12 kts 202°
2026-04-16 14:28 30.57703 103.94846 1646 ft 12 kts 202°
2026-04-16 14:28 30.57632 103.94813 1646 ft 10 kts 202°
2026-04-16 14:28 30.57587 103.94792 1646 ft 0 kts 201°
2026-04-16 14:29 30.57551 103.94779 1646 ft 6 kts 187°
2026-04-16 14:29 30.57510 103.94823 1646 ft 14 kts 139°
2026-04-16 14:29 30.57387 103.94784 1646 ft 21 kts 202°
2026-04-16 14:29 30.57305 103.94776 1646 ft 9 kts 131°
2026-04-16 14:30 30.57281 103.94835 1646 ft 7 kts 113°
2026-04-16 14:30 30.57272 103.94878 1646 ft 3 kts 54°
2026-04-16 14:30 30.57295 103.94873 1646 ft 6 kts 337°
2026-04-16 14:30 30.57340 103.94862 1646 ft 9 kts
2026-04-16 14:31 30.57371 103.94913 1646 ft 8 kts 107°
2026-04-16 14:31 30.57352 103.94968 1646 ft 7 kts 112°
2026-04-16 14:31 30.57337 103.95010 1646 ft 4 kts 112°
2026-04-16 14:31 30.57335 103.95016 1646 ft 0 kts 112°
2026-04-16 14:35 30.34944 103.84653 4901 ft 200 kts 356°
2026-04-16 14:35 30.44068 103.88293 4201 ft 198 kts 22°
2026-04-16 14:35 30.49588 103.90856 3113 ft 140 kts 21°
2026-04-16 14:35 30.52863 103.92377 2417 ft 134 kts 19°
2026-04-16 14:36 30.55057 103.93393 1946 ft 136 kts 21°
2026-04-16 14:36 30.55942 103.93805 1739 ft 138 kts 20°
2026-04-16 14:36 30.37551 103.85245 4896 ft 221 kts 22°
2026-04-16 14:36 30.54289 103.93035 2128 ft 136 kts 21°
2026-04-16 14:37 30.55103 103.93415 1947 ft 138 kts 21°
2026-04-16 14:37 30.55997 103.93835 1766 ft 139 kts 21°
2026-04-16 14:37 30.56881 103.94252 1648 ft 128 kts 15°
2026-04-16 14:37 30.57631 103.94601 1646 ft 104 kts 22°
2026-04-16 14:38 30.54062 103.92932 2177 ft 135 kts 20°
2026-04-16 14:38 30.54660 103.93206 2037 ft 137 kts 21°
2026-04-16 14:38 30.55437 103.93565 1855 ft 138 kts 21°
2026-04-16 14:38 30.56329 103.93989 1686 ft 138 kts 21°
2026-04-16 14:39 30.56905 103.94263 1648 ft 127 kts 19°
2026-04-16 14:39 30.54979 103.93356 1957 ft 134 kts 22°
2026-04-16 14:40 30.55088 103.93408 1941 ft 139 kts 21°
2026-04-16 14:40 30.55975 103.93822 1769 ft 139 kts 21°
2026-04-16 14:40 30.56865 103.94245 1651 ft 132 kts 17°
2026-04-16 14:41 30.54784 103.93263 1995 ft 134 kts 20°
2026-04-16 14:41 30.55616 103.93650 1849 ft 139 kts 21°
2026-04-16 14:41 30.56510 103.94074 1668 ft 138 kts 21°
2026-04-16 14:42 30.57322 103.94455 1646 ft 113 kts 21°
2026-04-16 14:42 30.54982 103.93357 1957 ft 134 kts 22°
2026-04-16 14:43 30.55523 103.93612 1861 ft 139 kts 22°
2026-04-16 14:43 30.56420 103.94033 1679 ft 139 kts 21°
2026-04-16 14:44 30.57256 103.94423 1646 ft 117 kts 22°